When you browse on this site, cookies collect data to enhance your experience and personalize the content and advertising you see.
Visit our Privacy Policy to learn more. By continuing to use the site, you agree to this use of cookies and data.
  • In United Kingdom
  • List of Countries
  • For 7 days
  • Water Temperature
  • Satellite Maps
  • Weather Map
  • Weather Widgets
  • user-avatar
    Login

    Hourly Weather Arauca

    Today, 25 April, Thursday

    Time Temperature Precipitation Wind Pressure Humidity
    00:00 +26°C° 0.1 mm 1 mps 748 mmHg 90%
    01:00 +26°C° 0.1 mm 1 mps 748 mmHg 91%
    02:00 +26°C° 0.1 mm 1 mps 748 mmHg 92%
    03:00 +25°C° 0.1 mm 1 mps 747 mmHg 92%
    04:00 +25°C° 0.1 mm 1 mps 747 mmHg 93%
    05:00 +24°C° 0 mm 0 mps 748 mmHg 90%
    06:00 +25°C° 0 mm 0 mps 748 mmHg 88%
    07:00 +25°C° 0 mm 0 mps 748 mmHg 85%
    08:00 +27°C° 1.1 mm 0 mps 749 mmHg 81%
    09:00 +30°C° 1.1 mm 1 mps 749 mmHg 76%
    10:00 +32°C° 1.1 mm 1 mps 749 mmHg 71%
    11:00 +32°C° 1.9 mm 1 mps 749 mmHg 69%
    12:00 +33°C° 1.9 mm 1 mps 748 mmHg 67%
    13:00 +32°C° 1.9 mm 0 mps 747 mmHg 65%
    14:00 +33°C° 0.7 mm 1 mps 747 mmHg 67%
    15:00 +33°C° 0.7 mm 1 mps 747 mmHg 69%
    16:00 +32°C° 0.7 mm 2 mps 746 mmHg 71%
    17:00 +31°C° 0 mm 1 mps 747 mmHg 76%
    18:00 +29°C° 0 mm 1 mps 747 mmHg 82%
    19:00 +28°C° 0 mm 1 mps 747 mmHg 87%
    20:00 +28°C° 0.4 mm 1 mps 748 mmHg 88%
    21:00 +26°C° 0.4 mm 0 mps 748 mmHg 88%
    22:00 +25°C° 0.4 mm 0 mps 749 mmHg 89%
    23:00 +25°C° 1.8 mm 0 mps 749 mmHg 89%

    Tomorrow, 26 April, Friday

    Time Temperature Precipitation Wind Pressure Humidity
    00:00 +27°C° 1.8 mm 1 mps 748 mmHg 90%
    01:00 +27°C° 1.8 mm 1 mps 748 mmHg 90%
    02:00 +27°C° 0 mm 1 mps 748 mmHg 91%
    03:00 +26°C° 0 mm 1 mps 748 mmHg 92%
    04:00 +24°C° 0 mm 0 mps 747 mmHg 93%
    05:00 +25°C° 0 mm 0 mps 748 mmHg 92%
    06:00 +27°C° 0 mm 1 mps 748 mmHg 92%
    07:00 +27°C° 0 mm 1 mps 749 mmHg 91%
    08:00 +28°C° 2.6 mm 1 mps 749 mmHg 87%
    09:00 +29°C° 2.6 mm 1 mps 749 mmHg 84%
    10:00 +30°C° 2.6 mm 1 mps 750 mmHg 80%
    11:00 +28°C° 3.5 mm 0 mps 749 mmHg 81%
    12:00 +28°C° 3.5 mm 0 mps 748 mmHg 81%
    13:00 +28°C° 3.5 mm 0 mps 748 mmHg 82%
    14:00 +28°C° 1 mm 0 mps 747 mmHg 81%
    15:00 +28°C° 1 mm 0 mps 747 mmHg 81%
    16:00 +28°C° 1 mm 0 mps 746 mmHg 80%
    17:00 +27°C° 0.1 mm 0 mps 747 mmHg 83%
    18:00 +26°C° 0.1 mm 0 mps 747 mmHg 86%
    19:00 +25°C° 0.1 mm 0 mps 748 mmHg 89%
    20:00 +25°C° 0 mm 0 mps 748 mmHg 90%
    21:00 +25°C° 0 mm 0 mps 749 mmHg 91%
    22:00 +25°C° 0 mm 0 mps 749 mmHg 92%
    23:00 +24°C° 0 mm 0 mps 749 mmHg 93%

    Day after tomorrow, 27 April, Saturday

    Time Temperature Precipitation Wind Pressure Humidity
    00:00 +24°C° 0 mm 0 mps 748 mmHg 94%
    01:00 +25°C° 0 mm 1 mps 748 mmHg 94%
    02:00 +25°C° 0 mm 1 mps 747 mmHg 95%
    03:00 +25°C° 0 mm 1 mps 747 mmHg 95%
    04:00 +25°C° 0 mm 1 mps 747 mmHg 95%
    05:00 +26°C° 0 mm 1 mps 747 mmHg 93%
    06:00 +24°C° 0 mm 0 mps 748 mmHg 91%
    07:00 +25°C° 0 mm 0 mps 748 mmHg 89%
    08:00 +28°C° 0.9 mm 1 mps 749 mmHg 84%
    09:00 +30°C° 0.9 mm 1 mps 749 mmHg 78%
    10:00 +31°C° 0.9 mm 1 mps 749 mmHg 73%
    11:00 +32°C° 0.7 mm 1 mps 748 mmHg 68%
    12:00 +34°C° 0.7 mm 1 mps 748 mmHg 63%
    13:00 +35°C° 0.7 mm 1 mps 747 mmHg 57%
    14:00 +33°C° 2.7 mm 1 mps 746 mmHg 68%
    15:00 +30°C° 2.7 mm 2 mps 746 mmHg 79%
    16:00 +28°C° 2.7 mm 3 mps 745 mmHg 90%
    17:00 +27°C° 0.7 mm 2 mps 746 mmHg 91%
    18:00 +27°C° 0.7 mm 1 mps 747 mmHg 93%
    19:00 +24°C° 0.7 mm 0 mps 747 mmHg 95%
    20:00 +24°C° 0 mm 0 mps 748 mmHg 95%
    21:00 +24°C° 0 mm 0 mps 748 mmHg 95%
    22:00 +24°C° 0 mm 0 mps 749 mmHg 95%
    23:00 +24°C° 0 mm 0 mps 748 mmHg 95%

    28 April, Sunday

    Time Temperature Precipitation Wind Pressure Humidity
    00:00 +24°C° 0 mm 0 mps 748 mmHg 96%
    01:00 +26°C° 0 mm 1 mps 747 mmHg 96%
    02:00 +25°C° 0 mm 1 mps 747 mmHg 96%
    03:00 +25°C° 0 mm 1 mps 747 mmHg 96%
    04:00 +25°C° 0 mm 1 mps 747 mmHg 96%
    05:00 +26°C° 0.1 mm 1 mps 747 mmHg 94%
    06:00 +26°C° 0.1 mm 1 mps 748 mmHg 92%
    07:00 +25°C° 0.1 mm 0 mps 748 mmHg 90%
    08:00 +28°C° 0 mm 1 mps 749 mmHg 82%
    09:00 +29°C° 0 mm 1 mps 749 mmHg 74%
    10:00 +31°C° 0 mm 1 mps 749 mmHg 67%
    11:00 +32°C° 0.2 mm 2 mps 749 mmHg 64%
    12:00 +32°C° 0.2 mm 2 mps 748 mmHg 62%
    13:00 +34°C° 0.2 mm 2 mps 747 mmHg 60%
    14:00 +34°C° 0.5 mm 2 mps 746 mmHg 62%
    15:00 +34°C° 0.5 mm 2 mps 746 mmHg 63%
    16:00 +33°C° 0.5 mm 1 mps 745 mmHg 65%
    17:00 +31°C° 0 mm 1 mps 746 mmHg 71%
    18:00 +30°C° 0 mm 1 mps 746 mmHg 76%
    19:00 +28°C° 0 mm 1 mps 747 mmHg 82%
    20:00 +28°C° 0.4 mm 1 mps 747 mmHg 84%
    21:00 +27°C° 0.4 mm 1 mps 748 mmHg 86%
    22:00 +27°C° 0.4 mm 1 mps 748 mmHg 88%
    23:00 +27°C° 0.4 mm 1 mps 748 mmHg 90%

    29 April, Monday

    Time Temperature Precipitation Wind Pressure Humidity
    00:00 +26°C° 0.4 mm 1 mps 747 mmHg 91%
    01:00 +26°C° 0.4 mm 1 mps 747 mmHg 93%
    02:00 +26°C° 0 mm 1 mps 747 mmHg 92%
    03:00 +26°C° 0 mm 1 mps 747 mmHg 92%
    04:00 +25°C° 0 mm 1 mps 746 mmHg 92%
    05:00 +26°C° 0 mm 1 mps 747 mmHg 89%
    06:00 +26°C° 0 mm 1 mps 748 mmHg 85%
    07:00 +27°C° 0 mm 1 mps 748 mmHg 82%
    08:00 +29°C° 0 mm 1 mps 748 mmHg 71%
    09:00 +31°C° 0 mm 2 mps 749 mmHg 61%
    10:00 +34°C° 0 mm 2 mps 749 mmHg 51%
    11:00 +35°C° 0 mm 2 mps 748 mmHg 50%
    12:00 +35°C° 0 mm 2 mps 747 mmHg 49%
    13:00 +36°C° 0 mm 2 mps 747 mmHg 48%
    14:00 +36°C° 0 mm 2 mps 746 mmHg 51%
    15:00 +35°C° 0 mm 2 mps 746 mmHg 55%
    16:00 +34°C° 0 mm 1 mps 745 mmHg 59%
    17:00 +32°C° 0 mm 1 mps 746 mmHg 64%
    18:00 +31°C° 0 mm 1 mps 746 mmHg 69%
    19:00 +29°C° 0 mm 1 mps 747 mmHg 74%
    20:00 +29°C° 0.1 mm 1 mps 747 mmHg 76%
    21:00 +28°C° 0.1 mm 1 mps 748 mmHg 78%
    22:00 +28°C° 0.1 mm 1 mps 748 mmHg 80%
    23:00 +27°C° 0.3 mm 1 mps 748 mmHg 83%

    30 April, Tuesday

    Time Temperature Precipitation Wind Pressure Humidity
    00:00 +27°C° 0.3 mm 1 mps 747 mmHg 87%
    01:00 +26°C° 0.3 mm 2 mps 747 mmHg 90%
    02:00 +26°C° 0 mm 2 mps 747 mmHg 89%
    03:00 +25°C° 0 mm 2 mps 747 mmHg 89%
    04:00 +25°C° 0 mm 2 mps 747 mmHg 88%
    05:00 +26°C° 0 mm 2 mps 747 mmHg 84%
    06:00 +26°C° 0 mm 1 mps 748 mmHg 81%
    07:00 +27°C° 0 mm 1 mps 749 mmHg 77%
    08:00 +29°C° 0 mm 2 mps 749 mmHg 69%
    09:00 +30°C° 0 mm 2 mps 749 mmHg 61%
    10:00 +32°C° 0 mm 2 mps 749 mmHg 53%
    11:00 +34°C° 0.1 mm 2 mps 748 mmHg 53%
    12:00 +35°C° 0.1 mm 2 mps 747 mmHg 52%
    13:00 +36°C° 0.1 mm 2 mps 747 mmHg 52%
    14:00 +36°C° 0 mm 2 mps 746 mmHg 53%
    15:00 +35°C° 0 mm 2 mps 746 mmHg 54%
    16:00 +35°C° 0 mm 2 mps 745 mmHg 55%
    17:00 +33°C° 0 mm 1 mps 746 mmHg 60%
    18:00 +31°C° 0 mm 1 mps 746 mmHg 65%
    19:00 +27°C° 0 mm 0 mps 747 mmHg 70%
    20:00 +29°C° 0.1 mm 1 mps 747 mmHg 73%
    21:00 +28°C° 0.1 mm 1 mps 748 mmHg 76%
    22:00 +28°C° 0.1 mm 1 mps 748 mmHg 78%
    23:00 +27°C° 0 mm 1 mps 748 mmHg 80%
    Show more